Regional Weather Roundup
Issued by NWS

Home | Current Version | Previous Version | Graphics & Text | Print | Product List | Glossary On
Versions: 1 2 3 4 5 6 7 8 9 10 11 12 13 14 15 16 17 18 19 20 21 22 23 24 25 26 27 28 29 30 31 32 33 34 35 36 37 38 39 40 41 42 43 44 45 46 47 48 49 50
000
ASUS43 KOAX 231510
RWRNE

WEATHER ROUNDUP FOR NEBRASKA
NATIONAL WEATHER SERVICE OMAHA NE
900 AM CST MON JAN 23 2017

NOTES: SATELLITE DATA IS BEING USED TO AUGMENT CLOUD COVER ABOVE
       12000 FEET.
       "FAIR" INDICATES FEW OR NO CLOUDS BELOW 12,000 FEET WITH NO
       SIGNIFICANT WEATHER AND/OR OBSTRUCTIONS TO VISIBILITY.

  * THESE STATIONS DO NOT REPORT WEATHER SUCH AS RAIN...SNOW OR FOG.

NEZ001>004-019>022-054>056-231600-
NEBRASKA PANHANDLE

CITY           SKY/WX    TMP DP  RH WIND       PRES   REMARKS
SCOTTSBLUFF    CLOUDY    27  21  78 E5        29.63F WCI  22
ALLIANCE       CLOUDY    29  24  82 E3        29.63F
CHADRON        CLOUDY    30  24  78 S5        29.65F WCI  25
KIMBALL        CLOUDY    27  24  89 W3        29.62R
SIDNEY         CLOUDY    28  22  78 SE3       29.63F
$$

NEZ057>060-069>072-079>082-231600-
SOUTHWEST NEBRASKA

CITY           SKY/WX    TMP DP  RH WIND       PRES   REMARKS
NORTH PLATTE   CLOUDY    30  26  85 E9        29.75S WCI  22
IMPERIAL       CLOUDY    30  24  78 SE12      29.67F WCI  20
LEXINGTON      CLOUDY    31  28  88 SE7       29.78F WCI  24
MCCOOK         CLEAR     26  24  92 E5        29.76F WCI  20
OGALLALA       CLOUDY    32  28  85 E5        29.68F WCI  28
$$

NEZ005>010-023>029-035>040-094-231600-
NORTH CENTRAL NEBRASKA

CITY           SKY/WX    TMP DP  RH WIND       PRES   REMARKS
VALENTINE      CLOUDY    21  18  88 NE6       29.75F WCI  13
AINSWORTH      CLOUDY    25  25  98 SE6       29.78S WCI  18
BROKEN BOW     CLOUDY    30  27  88 SE8       29.78S WCI  22
O`NEILL        FOG       27  27  98 S6        29.84R VSB 1/2 WCI  21
ORD            CLOUDY    25  23  92 SE6       29.81F WCI  18
THEDFORD       CLOUDY    30  28  92 E3        29.75F
$$

NEZ041-046>049-061>064-073>077-083>087-231600-
SOUTH CENTRAL NEBRASKA

CITY           SKY/WX    TMP DP  RH WIND       PRES   REMARKS
GRAND ISLAND   FOG       26  26 100 SE7       29.86S VSB 1/4 WCI  18
AURORA         FOG       27  27 100 E5        29.86S VSB<1/4 WCI  22
HASTINGS       CLOUDY    29  27  92 E6        29.85F WCI  23
HEBRON         FOG       27  27 100 NE5       29.88S VSB 1/4 WCI  21
HOLDREGE       PTCLDY    30  28  90 SE10      29.79F WCI  21
KEARNEY *      PTSUNNY   28  25  86 CALM      29.83R
YORK           FOG       28  28 100 SE3       29.88R VSB 1/4
$$

NEZ011>018-030>034-042>045-231600-
NORTHEAST NEBRASKA

CITY           SKY/WX    TMP DP  RH WIND       PRES   REMARKS
NORFOLK        CLOUDY    29  24  82 CALM      29.86F
ALBION         CLOUDY    27  25  90 S3        29.86S FOG
BLAIR          CLOUDY    32  29  89 NW3       29.88S
FREMONT        CLOUDY    32  29  88 CALM      29.88F
TEKAMAH        CLOUDY    32  28  85 NW3       29.90S
WAYNE          CLOUDY    31  28  88 CALM      29.88S
$$

NEZ050>053-065>068-078-088>093-231600-
SOUTHEAST NEBRASKA

CITY           SKY/WX    TMP DP  RH WIND       PRES   REMARKS
LINCOLN        CLOUDY    31  28  89 NE5       29.91R WCI  26
OMAHA EPPLEY   CLOUDY    33  27  78 NW5       29.90S WCI  29
BEATRICE       FOG       28  28  99 CALM      29.91R VSB 1/4
FALLS CITY     CLOUDY    31  28  89 N7        29.90S WCI  24
NEBRASKA CITY  CLOUDY    31  28  89 N5        29.89S WCI  26
PLATTSMOUTH    CLOUDY    31  27  83 NW3       29.89S
$$

NEZ044-045-051>053-067-231600-
OMAHA AREA

CITY           SKY/WX    TMP DP  RH WIND       PRES   REMARKS
OMAHA EPPLEY   CLOUDY    33  27  78 NW5       29.90S WCI  29
BLAIR          CLOUDY    32  29  89 NW3       29.88S
FREMONT        CLOUDY    32  29  88 CALM      29.88F
MILLARD        CLOUDY    34  29  83 NW5       29.90S WCI  30
OFFUTT AFB     CLOUDY    32  32  99 NW5       29.89F WCI  28
PLATTSMOUTH    CLOUDY    31  27  83 NW3       29.89S
WAHOO          CLOUDY    32  29  87 CALM      29.89S
$$



USA.gov is the U.S. government's official web portal to all federal, state and local government web resources and services.